TimeCST,TemperatureF,Dew PointF,Humidity,Sea Level PressureIn,VisibilityMPH,Wind Direction,Wind SpeedMPH,Gust SpeedMPH,PrecipitationIn,Events,Conditions,WindDirDegrees,DateUTC
12:53 AM,32.0,28.9,88,30.31,10.0,SW,5.8,-,N/A,,Clear,220,2013-11-07 06:53:00
1:53 AM,30.9,28.0,89,30.30,10.0,SW,6.9,-,N/A,,Clear,220,2013-11-07 07:53:00
2:53 AM,32.0,28.9,88,30.29,10.0,SW,6.9,-,N/A,,Clear,230,2013-11-07 08:53:00
3:53 AM,30.9,28.0,89,30.29,10.0,SW,8.1,-,N/A,,Clear,230,2013-11-07 09:53:00
4:53 AM,33.1,28.9,85,30.30,10.0,WSW,10.4,-,N/A,,Clear,250,2013-11-07 10:53:00
5:53 AM,32.0,28.9,88,30.30,10.0,West,9.2,-,N/A,,Clear,260,2013-11-07 11:53:00
6:53 AM,32.0,28.9,88,30.33,10.0,WSW,9.2,-,N/A,,Clear,240,2013-11-07 12:53:00
7:53 AM,33.1,28.9,85,30.35,10.0,WSW,6.9,-,N/A,,Clear,240,2013-11-07 13:53:00
8:53 AM,37.0,32.0,82,30.36,10.0,West,10.4,-,N/A,,Clear,270,2013-11-07 14:53:00
9:53 AM,41.0,34.0,76,30.36,10.0,WNW,12.7,-,N/A,,Clear,290,2013-11-07 15:53:00
10:53 AM,45.0,33.1,63,30.37,10.0,WNW,11.5,-,N/A,,Clear,300,2013-11-07 16:53:00
11:53 AM,48.0,32.0,54,30.35,10.0,WNW,10.4,20.7,N/A,,Clear,290,2013-11-07 17:53:00
12:53 PM,50.0,26.1,39,30.33,10.0,WNW,17.3,24.2,N/A,,Clear,290,2013-11-07 18:53:00
1:53 PM,50.0,23.0,35,30.34,10.0,NW,18.4,26.5,N/A,,Clear,320,2013-11-07 19:53:00
2:53 PM,50.0,25.0,38,30.34,10.0,NW,19.6,25.3,N/A,,Clear,310,2013-11-07 20:53:00
3:53 PM,48.0,25.0,41,30.35,10.0,NW,13.8,-,N/A,,Clear,310,2013-11-07 21:53:00
4:53 PM,44.1,21.9,42,30.36,10.0,NW,10.4,-,N/A,,Clear,320,2013-11-07 22:53:00
5:53 PM,37.9,24.1,57,30.38,10.0,WNW,4.6,-,N/A,,Clear,290,2013-11-07 23:53:00
6:53 PM,34.0,24.1,67,30.38,10.0,WNW,5.8,-,N/A,,Clear,290,2013-11-08 00:53:00
7:53 PM,35.1,23.0,61,30.37,10.0,WNW,4.6,-,N/A,,Clear,290,2013-11-08 01:53:00
8:53 PM,35.1,24.1,64,30.36,10.0,West,5.8,-,N/A,,Clear,280,2013-11-08 02:53:00
9:53 PM,35.1,23.0,61,30.35,10.0,West,3.5,-,N/A,,Clear,270,2013-11-08 03:53:00
10:53 PM,32.0,23.0,69,30.35,10.0,WSW,5.8,-,N/A,,Clear,250,2013-11-08 04:53:00
11:53 PM,30.9,21.9,69,30.35,10.0,SW,5.8,-,N/A,,Clear,230,2013-11-08 05:53:00